Time+07,TemperatureF,Dew PointF,Humidity,Sea Level PressureIn,VisibilityMPH,Wind Direction,Wind SpeedMPH,Gust SpeedMPH,PrecipitationIn,Events,Conditions,WindDirDegrees,DateUTC
12:00 AM,77.0,71.6,83,29.86,5.6,WNW,5.8,-,N/A,,Mostly Cloudy,300,2012-11-15 17:00:00
12:30 AM,77.0,71.6,83,29.86,5.6,West,3.5,-,N/A,,Mostly Cloudy,280,2012-11-15 17:30:00
1:00 AM,77.0,71.6,83,29.86,5.6,WNW,3.5,-,N/A,,Mostly Cloudy,300,2012-11-15 18:00:00
7:00 AM,78.8,75.2,89,29.86,5.6,WNW,3.5,-,N/A,,Mostly Cloudy,300,2012-11-16 00:00:00
7:30 AM,78.8,73.4,83,29.86,6.2,North,2.3,-,N/A,,Mostly Cloudy,360,2012-11-16 00:30:00
8:00 AM,80.6,73.4,79,29.89,6.2,NNW,5.8,-,N/A,,Mostly Cloudy,330,2012-11-16 01:00:00
8:30 AM,82.4,73.4,74,29.89,6.2,NNW,9.2,-,N/A,,Mostly Cloudy,340,2012-11-16 01:30:00
9:00 AM,82.4,71.6,70,29.89,6.2,North,9.2,-,N/A,,Mostly Cloudy,350,2012-11-16 02:00:00
9:30 AM,82.4,73.4,74,29.89,6.2,NNW,12.7,-,N/A,,Mostly Cloudy,340,2012-11-16 02:30:00
10:00 AM,84.2,73.4,70,29.89,6.2,North,5.8,-,N/A,,Mostly Cloudy,360,2012-11-16 03:00:00
10:30 AM,84.2,73.4,70,29.89,6.2,North,5.8,-,N/A,,Mostly Cloudy,360,2012-11-16 03:30:00
11:00 AM,84.2,73.4,70,29.89,6.2,North,9.2,-,N/A,,Mostly Cloudy,360,2012-11-16 04:00:00
11:30 AM,82.4,75.2,79,29.86,6.2,North,9.2,-,N/A,,Mostly Cloudy,350,2012-11-16 04:30:00
12:00 PM,84.2,75.2,74,29.86,6.2,North,5.8,-,N/A,,Scattered Clouds,360,2012-11-16 05:00:00
12:30 PM,86.0,73.4,66,29.83,6.2,NNE,11.5,-,N/A,,Scattered Clouds,30,2012-11-16 05:30:00
1:00 PM,84.2,75.2,74,29.80,6.2,NE,10.4,-,N/A,,Scattered Clouds,50,2012-11-16 06:00:00
1:30 PM,86.0,73.4,66,29.80,6.2,NNE,4.6,-,N/A,,Scattered Clouds,30,2012-11-16 06:30:00
2:00 PM,86.0,75.2,70,29.80,6.2,NNE,8.1,-,N/A,,Scattered Clouds,20,2012-11-16 07:00:00
2:30 PM,84.2,73.4,70,29.77,6.2,NE,6.9,-,N/A,,Scattered Clouds,40,2012-11-16 07:30:00
3:00 PM,86.0,73.4,66,29.77,6.2,NE,9.2,-,N/A,,Scattered Clouds,50,2012-11-16 08:00:00
3:30 PM,86.0,73.4,66,29.77,6.2,NE,4.6,-,N/A,,Scattered Clouds,50,2012-11-16 08:30:00
4:00 PM,86.0,75.2,70,29.77,6.2,NE,4.6,-,N/A,,Scattered Clouds,40,2012-11-16 09:00:00
4:30 PM,86.0,75.2,70,29.77,6.2,NE,4.6,-,N/A,,Scattered Clouds,50,2012-11-16 09:30:00
5:00 PM,86.0,73.4,66,29.77,6.2,NE,5.8,-,N/A,,Scattered Clouds,50,2012-11-16 10:00:00
5:30 PM,84.2,73.4,70,29.77,6.2,East,4.6,-,N/A,,Scattered Clouds,100,2012-11-16 10:30:00
6:00 PM,84.2,73.4,70,29.80,5.6,ESE,3.5,-,N/A,,Scattered Clouds,110,2012-11-16 11:00:00
6:30 PM,84.2,75.2,74,29.80,5.6,SE,1.2,-,N/A,,Scattered Clouds,130,2012-11-16 11:30:00
7:00 PM,84.2,75.2,74,29.83,5.6,Variable,2.3,-,N/A,,Scattered Clouds,0,2012-11-16 12:00:00
7:30 PM,82.4,75.2,79,29.83,5.6,ESE,4.6,-,N/A,,Scattered Clouds,120,2012-11-16 12:30:00
8:00 PM,82.4,73.4,74,29.83,5.6,Calm,Calm,-,N/A,,Scattered Clouds,0,2012-11-16 13:00:00
8:30 PM,82.4,75.2,79,29.83,5.6,ESE,2.3,-,N/A,,Scattered Clouds,120,2012-11-16 13:30:00
9:00 PM,82.4,75.2,79,29.83,5.6,ENE,3.5,-,N/A,,Scattered Clouds,70,2012-11-16 14:00:00
9:30 PM,82.4,75.2,79,29.83,5.6,NNE,4.6,-,N/A,,Scattered Clouds,30,2012-11-16 14:30:00
10:00 PM,82.4,75.2,79,29.83,6.2,NE,4.6,-,N/A,,Scattered Clouds,50,2012-11-16 15:00:00
10:30 PM,80.6,77.0,89,29.83,6.2,NE,5.8,-,N/A,,Scattered Clouds,50,2012-11-16 15:30:00
11:00 PM,82.4,77.0,84,29.86,6.2,ENE,2.3,-,N/A,,Scattered Clouds,60,2012-11-16 16:00:00